Time,TemperatureF,DewpointF,PressureIn,WindDirection,WindDirectionDegrees,WindSpeedMPH,WindSpeedGustMPH,Humidity,HourlyPrecipIn,Conditions,Clouds,dailyrainin,SoftwareType,DateUTC
2013-02-12 00:02:00,33.6,11.9,30.27,SSW,199,0.0,0.0,40,0.00,,---,0.00,VWS V14.01,2013-02-12 08:02:00,
2013-02-12 00:07:00,33.5,11.8,30.27,SSW,198,0.0,0.0,40,0.00,,---,0.00,VWS V14.01,2013-02-12 08:07:00,
2013-02-12 00:12:00,32.9,11.8,30.28,SSW,197,0.0,0.0,41,0.00,,---,0.00,VWS V14.01,2013-02-12 08:12:00,
2013-02-12 00:17:00,32.7,12.2,30.28,SSW,198,0.0,0.0,42,0.00,,---,0.00,VWS V14.01,2013-02-12 08:17:00,
2013-02-12 00:22:00,33.7,12.0,30.28,SW,218,0.0,0.0,40,0.00,,---,0.00,VWS V14.01,2013-02-12 08:22:00,
2013-02-12 00:27:00,34.1,12.3,30.28,SSW,201,0.0,0.0,40,0.00,,---,0.00,VWS V14.01,2013-02-12 08:27:00,
2013-02-12 00:32:00,33.7,12.0,30.28,SSW,209,0.0,0.0,40,0.00,,---,0.00,VWS V14.01,2013-02-12 08:32:00,
2013-02-12 00:37:00,34.1,11.8,30.28,SSW,205,0.0,0.0,39,0.00,,---,0.00,VWS V14.01,2013-02-12 08:37:00,
2013-02-12 00:42:00,34.0,11.7,30.28,SW,229,0.0,0.0,39,0.00,,---,0.00,VWS V14.01,2013-02-12 08:42:00,
2013-02-12 00:47:00,34.9,11.9,30.28,SE,131,0.0,0.0,38,0.00,,---,0.00,VWS V14.01,2013-02-12 08:47:00,
2013-02-12 00:52:00,33.8,11.5,30.28,SSE,166,0.0,0.0,39,0.00,,---,0.00,VWS V14.01,2013-02-12 08:52:00,
2013-02-12 00:57:00,34.1,11.8,30.28,SSE,167,0.0,0.0,39,0.00,,---,0.00,VWS V14.01,2013-02-12 08:57:00,
2013-02-12 01:02:00,34.3,11.4,30.28,SSW,198,0.0,0.0,38,0.00,,---,0.00,VWS V14.01,2013-02-12 09:02:00,
2013-02-12 01:07:00,34.4,11.4,30.28,SSW,199,0.0,0.0,38,0.00,,---,0.00,VWS V14.01,2013-02-12 09:07:00,
2013-02-12 01:12:00,34.4,11.4,30.28,SSW,199,0.0,0.0,38,0.00,,---,0.00,VWS V14.01,2013-02-12 09:12:00,
2013-02-12 01:17:00,34.5,12.1,30.28,South,191,0.0,0.0,39,0.00,,---,0.00,VWS V14.01,2013-02-12 09:17:00,
2013-02-12 01:22:00,34.1,12.3,30.28,SE,132,0.0,0.0,40,0.00,,---,0.00,VWS V14.01,2013-02-12 09:22:00,
2013-02-12 01:27:00,33.7,12.0,30.28,SE,138,0.0,0.0,40,0.00,,---,0.00,VWS V14.01,2013-02-12 09:27:00,
2013-02-12 01:32:00,33.7,11.4,30.28,SE,134,0.0,0.0,39,0.00,,---,0.00,VWS V14.01,2013-02-12 09:32:00,
2013-02-12 01:37:00,34.5,12.1,30.28,SE,134,0.0,0.0,39,0.00,,---,0.00,VWS V14.01,2013-02-12 09:37:00,
2013-02-12 01:42:00,34.1,11.2,30.28,South,187,0.0,0.0,38,0.00,,---,0.00,VWS V14.01,2013-02-12 09:42:00,
2013-02-12 01:47:00,35.5,11.8,30.28,SSW,205,0.0,0.0,37,0.00,,---,0.00,VWS V14.01,2013-02-12 09:47:00,
2013-02-12 01:52:00,34.7,11.7,30.28,SE,131,0.0,0.0,38,0.00,,---,0.00,VWS V14.01,2013-02-12 09:52:00,
2013-02-12 01:57:00,34.8,9.9,30.28,SSE,167,0.0,0.0,35,0.00,,---,0.00,VWS V14.01,2013-02-12 09:57:00,
2013-02-12 02:02:00,35.9,10.3,30.28,SSE,166,0.0,0.0,34,0.00,,---,0.00,VWS V14.01,2013-02-12 10:02:00,
2013-02-12 02:07:00,35.3,11.0,30.28,SSE,160,0.0,0.0,36,0.00,,---,0.00,VWS V14.01,2013-02-12 10:07:00,
2013-02-12 02:12:00,34.9,11.3,30.28,SSE,160,0.0,0.0,37,0.00,,---,0.00,VWS V14.01,2013-02-12 10:12:00,
2013-02-12 02:17:00,34.6,11.0,30.28,SSE,160,0.0,0.0,37,0.00,,---,0.00,VWS V14.01,2013-02-12 10:17:00,
2013-02-12 02:23:00,34.6,11.6,30.28,SSE,152,0.0,0.0,38,0.00,,---,0.00,VWS V14.01,2013-02-12 10:23:00,
2013-02-12 02:28:00,33.9,11.0,30.28,SSE,158,0.0,0.0,38,0.00,,---,0.00,VWS V14.01,2013-02-12 10:28:00,
2013-02-12 02:33:00,33.8,11.5,30.28,SE,131,0.0,0.0,39,0.00,,---,0.00,VWS V14.01,2013-02-12 10:33:00,
2013-02-12 02:38:00,32.9,12.3,30.28,SE,131,0.0,0.0,42,0.00,,---,0.00,VWS V14.01,2013-02-12 10:38:00,
2013-02-12 02:43:00,33.4,11.7,30.28,SE,131,0.0,0.0,40,0.00,,---,0.00,VWS V14.01,2013-02-12 10:43:00,
2013-02-12 02:48:00,32.9,12.3,30.28,SE,131,0.0,0.0,42,0.00,,---,0.00,VWS V14.01,2013-02-12 10:48:00,
2013-02-12 02:53:00,32.4,11.3,30.28,SE,131,0.0,0.0,41,0.00,,---,0.00,VWS V14.01,2013-02-12 10:53:00,
2013-02-12 02:58:00,32.3,12.3,30.28,SE,131,0.0,0.0,43,0.00,,---,0.00,VWS V14.01,2013-02-12 10:58:00,
2013-02-12 03:03:00,31.6,12.2,30.28,SE,131,0.0,0.0,44,0.00,,---,0.00,VWS V14.01,2013-02-12 11:03:00,
2013-02-12 03:08:00,30.9,12.1,30.28,SE,131,0.0,0.0,45,0.00,,---,0.00,VWS V14.01,2013-02-12 11:08:00,
2013-02-12 03:13:00,30.4,12.6,30.28,SE,131,0.0,0.0,47,0.00,,---,0.00,VWS V14.01,2013-02-12 11:13:00,
2013-02-12 03:18:00,30.0,12.2,30.28,SE,131,0.0,0.0,47,0.00,,---,0.00,VWS V14.01,2013-02-12 11:18:00,
2013-02-12 03:23:00,30.3,13.0,30.29,SSW,205,0.0,0.0,48,0.00,,---,0.00,VWS V14.01,2013-02-12 11:23:00,
2013-02-12 03:28:00,29.7,13.4,30.29,SSW,205,0.0,0.0,50,0.00,,---,0.00,VWS V14.01,2013-02-12 11:28:00,
2013-02-12 03:33:00,29.0,13.1,30.29,SSW,206,0.0,0.0,51,0.00,,---,0.00,VWS V14.01,2013-02-12 11:33:00,
2013-02-12 03:38:00,28.4,13.5,30.29,SSW,205,0.0,0.0,53,0.00,,---,0.00,VWS V14.01,2013-02-12 11:38:00,
2013-02-12 03:43:00,28.3,14.2,30.29,SSW,205,0.0,0.0,55,0.00,,---,0.00,VWS V14.01,2013-02-12 11:43:00,
2013-02-12 03:48:00,28.3,13.8,30.30,SSW,205,0.0,0.0,54,0.00,,---,0.00,VWS V14.01,2013-02-12 11:48:00,
2013-02-12 03:53:00,28.1,13.2,30.30,SSW,205,0.0,0.0,53,0.00,,---,0.00,VWS V14.01,2013-02-12 11:53:00,
2013-02-12 03:58:00,28.6,13.2,30.30,East,101,0.0,0.0,52,0.00,,---,0.00,VWS V14.01,2013-02-12 11:58:00,
2013-02-12 04:03:00,29.2,12.9,30.30,East,101,0.0,0.0,50,0.00,,---,0.00,VWS V14.01,2013-02-12 12:03:00,
2013-02-12 04:08:00,29.7,12.9,30.30,ESE,102,0.0,0.0,49,0.00,,---,0.00,VWS V14.01,2013-02-12 12:08:00,
2013-02-12 04:13:00,30.0,15.4,30.30,ESE,102,0.0,0.0,54,0.00,,---,0.00,VWS V14.01,2013-02-12 12:13:00,
2013-02-12 04:18:00,29.6,13.3,30.30,ESE,102,0.0,0.0,50,0.00,,---,0.00,VWS V14.01,2013-02-12 12:18:00,
2013-02-12 04:23:00,29.4,13.5,30.30,ESE,115,0.0,0.0,51,0.00,,---,0.00,VWS V14.01,2013-02-12 12:23:00,
2013-02-12 04:28:00,29.0,13.6,30.31,ESE,115,0.0,0.0,52,0.00,,---,0.00,VWS V14.01,2013-02-12 12:28:00,
2013-02-12 04:33:00,28.8,13.4,30.31,ESE,116,0.0,0.0,52,0.00,,---,0.00,VWS V14.01,2013-02-12 12:33:00,
2013-02-12 04:38:00,28.4,13.5,30.31,ESE,116,0.0,0.0,53,0.00,,---,0.00,VWS V14.01,2013-02-12 12:38:00,
2013-02-12 04:43:00,28.4,13.9,30.31,ESE,116,0.0,0.0,54,0.00,,---,0.00,VWS V14.01,2013-02-12 12:43:00,
2013-02-12 04:48:00,28.2,13.7,30.31,SSE,149,0.0,0.0,54,0.00,,---,0.00,VWS V14.01,2013-02-12 12:48:00,
2013-02-12 04:53:00,28.3,13.4,30.31,SE,142,0.0,0.0,53,0.00,,---,0.00,VWS V14.01,2013-02-12 12:53:00,
2013-02-12 04:58:00,28.8,13.0,30.32,SE,134,0.0,0.0,51,0.00,,---,0.00,VWS V14.01,2013-02-12 12:58:00,
2013-02-12 05:03:00,29.0,13.6,30.32,SE,135,0.0,0.0,52,0.00,,---,0.00,VWS V14.01,2013-02-12 13:03:00,
2013-02-12 05:08:00,29.1,13.2,30.32,SE,135,0.0,0.0,51,0.00,,---,0.00,VWS V14.01,2013-02-12 13:08:00,
2013-02-12 05:13:00,29.0,13.1,30.32,SE,139,0.0,0.0,51,0.00,,---,0.00,VWS V14.01,2013-02-12 13:13:00,
2013-02-12 05:18:00,28.7,12.9,30.32,SE,140,0.0,0.0,51,0.00,,---,0.00,VWS V14.01,2013-02-12 13:18:00,
2013-02-12 05:23:00,28.3,12.9,30.32,SE,139,0.0,0.0,52,0.00,,---,0.00,VWS V14.01,2013-02-12 13:23:00,
2013-02-12 05:28:00,27.7,12.8,30.33,SE,139,0.0,0.0,53,0.00,,---,0.00,VWS V14.01,2013-02-12 13:28:00,
2013-02-12 05:33:00,27.2,13.6,30.33,SE,140,0.0,0.0,56,0.00,,---,0.00,VWS V14.01,2013-02-12 13:33:00,
2013-02-12 05:38:00,27.2,13.6,30.33,SSE,167,0.0,0.0,56,0.00,,---,0.00,VWS V14.01,2013-02-12 13:38:00,
2013-02-12 05:43:00,27.5,13.1,30.33,SSE,166,0.0,0.0,54,0.00,,---,0.00,VWS V14.01,2013-02-12 13:43:00,
2013-02-12 05:48:00,27.2,13.6,30.33,South,181,0.0,0.0,56,0.00,,---,0.00,VWS V14.01,2013-02-12 13:48:00,
2013-02-12 05:54:00,26.9,13.3,30.33,SSW,207,0.0,0.0,56,0.00,,---,0.00,VWS V14.01,2013-02-12 13:54:00,
2013-02-12 05:59:00,26.7,13.5,30.34,SSW,207,0.0,0.0,57,0.00,,---,0.00,VWS V14.01,2013-02-12 13:59:00,
2013-02-12 06:04:00,26.4,13.6,30.34,SSW,206,0.0,0.0,58,0.00,,---,0.00,VWS V14.01,2013-02-12 14:04:00,
2013-02-12 06:09:00,26.3,13.9,30.34,SSW,206,0.0,0.0,59,0.00,,---,0.00,VWS V14.01,2013-02-12 14:09:00,
2013-02-12 06:14:00,26.4,13.2,30.34,SSW,205,0.0,0.0,57,0.00,,---,0.00,VWS V14.01,2013-02-12 14:14:00,
2013-02-12 06:19:00,26.3,13.6,30.34,SSW,206,0.0,0.0,58,0.00,,---,0.00,VWS V14.01,2013-02-12 14:19:00,
2013-02-12 06:24:00,26.2,13.8,30.34,SSW,205,0.0,0.0,59,0.00,,---,0.00,VWS V14.01,2013-02-12 14:24:00,
2013-02-12 06:29:00,25.9,13.9,30.34,SSW,206,0.0,0.0,60,0.00,,---,0.00,VWS V14.01,2013-02-12 14:29:00,
2013-02-12 06:34:00,25.8,14.6,30.35,SSW,206,0.0,0.0,62,0.00,,---,0.00,VWS V14.01,2013-02-12 14:34:00,
2013-02-12 06:39:00,26.2,14.2,30.35,SE,141,0.0,0.0,60,0.00,,---,0.00,VWS V14.01,2013-02-12 14:39:00,
2013-02-12 06:44:00,26.4,14.0,30.35,SE,142,0.0,0.0,59,0.00,,---,0.00,VWS V14.01,2013-02-12 14:44:00,
2013-02-12 06:49:00,26.6,14.2,30.35,SSE,156,0.0,0.0,59,0.00,,---,0.00,VWS V14.01,2013-02-12 14:49:00,
2013-02-12 06:54:00,27.6,15.9,30.36,SSE,155,0.0,0.0,61,0.00,,---,0.00,VWS V14.01,2013-02-12 14:54:00,
2013-02-12 06:59:00,28.2,14.9,30.36,SSE,155,0.0,0.0,57,0.00,,---,0.00,VWS V14.01,2013-02-12 14:59:00,
2013-02-12 07:04:00,29.0,15.3,30.36,SSE,155,0.0,0.0,56,0.00,,---,0.00,VWS V14.01,2013-02-12 15:04:00,
2013-02-12 07:09:00,30.1,15.9,30.37,SSE,155,0.0,0.0,55,0.00,,---,0.00,VWS V14.01,2013-02-12 15:09:00,
2013-02-12 07:14:00,31.0,15.0,30.37,SSE,155,0.0,0.0,51,0.00,,---,0.00,VWS V14.01,2013-02-12 15:14:00,
2013-02-12 07:19:00,31.9,14.0,30.37,SSE,155,0.0,0.0,47,0.00,,---,0.00,VWS V14.01,2013-02-12 15:19:00,
2013-02-12 07:24:00,31.8,14.8,30.37,SSE,155,0.0,0.0,49,0.00,,---,0.00,VWS V14.01,2013-02-12 15:24:00,
2013-02-12 07:29:00,32.2,15.7,30.38,SSE,155,0.0,0.0,50,0.00,,---,0.00,VWS V14.01,2013-02-12 15:29:00,
2013-02-12 07:34:00,33.0,15.0,30.38,SSE,155,0.0,0.0,47,0.00,,---,0.00,VWS V14.01,2013-02-12 15:34:00,
2013-02-12 07:39:00,32.7,15.2,30.38,ESE,113,0.0,0.0,48,0.00,,---,0.00,VWS V14.01,2013-02-12 15:39:00,
2013-02-12 07:44:00,32.4,14.9,30.38,East,84,0.0,0.0,48,0.00,,---,0.00,VWS V14.01,2013-02-12 15:44:00,
2013-02-12 07:49:00,32.1,14.6,30.38,ENE,70,0.0,0.0,48,0.00,,---,0.00,VWS V14.01,2013-02-12 15:49:00,
2013-02-12 07:54:00,31.7,14.3,30.39,ENE,68,2.0,2.0,48,0.00,,---,0.00,VWS V14.01,2013-02-12 15:54:00,
2013-02-12 07:59:00,31.9,14.9,30.39,East,86,0.0,2.0,49,0.00,,---,0.00,VWS V14.01,2013-02-12 15:59:00,
2013-02-12 08:04:00,32.2,14.2,30.39,NE,40,0.0,0.0,47,0.00,,---,0.00,VWS V14.01,2013-02-12 16:04:00,
2013-02-12 08:09:00,32.7,14.7,30.39,NE,41,0.0,0.0,47,0.00,,---,0.00,VWS V14.01,2013-02-12 16:09:00,
2013-02-12 08:14:00,33.2,13.7,30.39,NE,40,0.0,0.0,44,0.00,,---,0.00,VWS V14.01,2013-02-12 16:14:00,
2013-02-12 08:19:00,33.6,14.0,30.39,NE,36,0.0,0.0,44,0.00,,---,0.00,VWS V14.01,2013-02-12 16:19:00,
2013-02-12 08:24:00,34.2,13.0,30.39,NE,36,0.0,0.0,41,0.00,,---,0.00,VWS V14.01,2013-02-12 16:24:00,
2013-02-12 08:29:00,34.9,13.0,30.39,NE,38,0.0,0.0,40,0.00,,---,0.00,VWS V14.01,2013-02-12 16:29:00,
2013-02-12 08:34:00,35.6,13.7,30.39,NE,38,0.0,0.0,40,0.00,,---,0.00,VWS V14.01,2013-02-12 16:34:00,
2013-02-12 08:39:00,36.1,13.6,30.40,North,5,0.0,0.0,39,0.00,,---,0.00,VWS V14.01,2013-02-12 16:39:00,
2013-02-12 08:44:00,36.6,12.8,30.40,NNW,336,0.0,0.0,37,0.00,,---,0.00,VWS V14.01,2013-02-12 16:44:00,
2013-02-12 08:49:00,36.9,12.4,30.39,West,273,0.0,1.0,36,0.00,,---,0.00,VWS V14.01,2013-02-12 16:49:00,
2013-02-12 08:54:00,37.4,12.3,30.39,West,273,0.0,1.0,35,0.00,,---,0.00,VWS V14.01,2013-02-12 16:54:00,
2013-02-12 08:59:00,37.9,12.1,30.39,NNE,13,1.0,2.0,34,0.00,,---,0.00,VWS V14.01,2013-02-12 16:59:00,
2013-02-12 09:04:00,38.1,12.2,30.39,WNW,288,0.0,3.0,34,0.00,,---,0.00,VWS V14.01,2013-02-12 17:04:00,
2013-02-12 09:09:00,38.5,11.9,30.40,North,359,2.0,3.0,33,0.00,,---,0.00,VWS V14.01,2013-02-12 17:09:00,
2013-02-12 09:14:00,38.8,12.9,30.40,NNE,26,0.0,3.0,34,0.00,,---,0.00,VWS V14.01,2013-02-12 17:14:00,
2013-02-12 09:19:00,39.2,13.2,30.40,NE,36,0.0,3.0,34,0.00,,---,0.00,VWS V14.01,2013-02-12 17:19:00,
2013-02-12 09:24:00,39.5,13.5,30.40,WNW,297,2.0,3.0,34,0.00,,---,0.00,VWS V14.01,2013-02-12 17:24:00,
2013-02-12 09:29:00,39.9,13.8,30.40,WNW,300,1.0,3.0,34,0.00,,---,0.00,VWS V14.01,2013-02-12 17:29:00,
2013-02-12 09:34:00,40.3,14.2,30.39,NE,37,2.0,3.0,34,0.00,,---,0.00,VWS V14.01,2013-02-12 17:34:00,
2013-02-12 09:39:00,40.8,14.6,30.39,NW,316,2.0,3.0,34,0.00,,---,0.00,VWS V14.01,2013-02-12 17:39:00,
2013-02-12 09:44:00,41.3,14.4,30.40,NW,323,3.0,3.0,33,0.00,,---,0.00,VWS V14.01,2013-02-12 17:44:00,
2013-02-12 09:49:00,41.8,14.8,30.40,NNE,23,3.0,4.0,33,0.00,,---,0.00,VWS V14.01,2013-02-12 17:49:00,
2013-02-12 09:54:00,42.3,13.8,30.40,North,4,1.0,4.0,31,0.00,,---,0.00,VWS V14.01,2013-02-12 17:54:00,
2013-02-12 09:59:00,42.5,14.7,30.40,NNW,346,2.0,4.0,32,0.00,,---,0.00,VWS V14.01,2013-02-12 17:59:00,
2013-02-12 10:04:00,43.1,14.5,30.40,NNE,28,0.0,3.0,31,0.00,,---,0.00,VWS V14.01,2013-02-12 18:04:00,
2013-02-12 10:09:00,43.5,14.1,30.40,West,271,1.0,3.0,30,0.00,,---,0.00,VWS V14.01,2013-02-12 18:09:00,
2013-02-12 10:14:00,44.2,14.8,30.40,SSW,213,0.0,3.0,30,0.00,,---,0.00,VWS V14.01,2013-02-12 18:14:00,
2013-02-12 10:19:00,45.0,14.7,30.39,NW,323,2.0,4.0,29,0.00,,---,0.00,VWS V14.01,2013-02-12 18:19:00,
2013-02-12 10:24:00,45.2,12.4,30.39,NW,311,2.0,4.0,26,0.00,,---,0.00,VWS V14.01,2013-02-12 18:24:00,
2013-02-12 10:30:00,45.2,13.2,30.39,West,276,2.0,4.0,27,0.00,,---,0.00,VWS V14.01,2013-02-12 18:30:00,
2013-02-12 10:35:00,45.7,12.8,30.39,WSW,243,0.0,4.0,26,0.00,,---,0.00,VWS V14.01,2013-02-12 18:35:00,
2013-02-12 10:40:00,46.5,12.6,30.39,NNW,340,1.0,4.0,25,0.00,,---,0.00,VWS V14.01,2013-02-12 18:40:00,
2013-02-12 10:45:00,46.7,10.9,30.39,NW,324,0.0,4.0,23,0.00,,---,0.00,VWS V14.01,2013-02-12 18:45:00,
2013-02-12 10:50:00,47.1,11.2,30.39,West,281,0.0,4.0,23,0.00,,---,0.00,VWS V14.01,2013-02-12 18:50:00,
2013-02-12 10:55:00,47.6,10.6,30.39,NW,318,0.0,4.0,22,0.00,,---,0.00,VWS V14.01,2013-02-12 18:55:00,
2013-02-12 11:00:00,48.5,11.4,30.39,NNE,16,2.0,2.0,22,0.00,,---,0.00,VWS V14.01,2013-02-12 19:00:00,
2013-02-12 11:05:00,49.0,11.8,30.38,NE,53,1.0,2.0,22,0.00,,---,0.00,VWS V14.01,2013-02-12 19:05:00,
2013-02-12 11:10:00,49.0,11.8,30.38,North,352,0.0,4.0,22,0.00,,---,0.00,VWS V14.01,2013-02-12 19:10:00,
2013-02-12 11:15:00,49.1,11.9,30.38,West,280,2.0,4.0,22,0.00,,---,0.00,VWS V14.01,2013-02-12 19:15:00,
2013-02-12 11:20:00,49.1,10.9,30.38,NE,44,0.0,6.0,21,0.00,,---,0.00,VWS V14.01,2013-02-12 19:20:00,
2013-02-12 11:25:00,49.5,10.1,30.38,ENE,68,5.0,6.0,20,0.00,,---,0.00,VWS V14.01,2013-02-12 19:25:00,
2013-02-12 11:30:00,49.7,10.3,30.37,SE,135,1.0,6.0,20,0.00,,---,0.00,VWS V14.01,2013-02-12 19:30:00,
2013-02-12 11:35:00,49.8,10.4,30.37,ENE,67,2.0,7.0,20,0.00,,---,0.00,VWS V14.01,2013-02-12 19:35:00,
2013-02-12 11:40:00,50.2,11.8,30.37,SSE,160,0.0,7.0,21,0.00,,---,0.00,VWS V14.01,2013-02-12 19:40:00,
2013-02-12 11:45:00,50.9,11.3,30.36,ENE,68,2.0,7.0,20,0.00,,---,0.00,VWS V14.01,2013-02-12 19:45:00,
2013-02-12 11:50:00,51.2,11.5,30.36,East,98,0.0,7.0,20,0.00,,---,0.00,VWS V14.01,2013-02-12 19:50:00,
2013-02-12 11:55:00,51.4,12.8,30.36,NE,36,0.0,7.0,21,0.00,,---,0.00,VWS V14.01,2013-02-12 19:55:00,
2013-02-12 12:00:00,51.2,11.5,30.36,North,8,2.0,5.0,20,0.00,,---,0.00,VWS V14.01,2013-02-12 20:00:00,
2013-02-12 12:05:00,51.3,11.6,30.35,NE,36,8.0,8.0,20,0.00,,---,0.00,VWS V14.01,2013-02-12 20:05:00,
2013-02-12 12:10:00,51.4,10.5,30.35,NE,42,3.0,8.0,19,0.00,,---,0.00,VWS V14.01,2013-02-12 20:10:00,
2013-02-12 12:15:00,51.4,10.5,30.35,North,8,2.0,8.0,19,0.00,,---,0.00,VWS V14.01,2013-02-12 20:15:00,
2013-02-12 12:20:00,51.8,12.0,30.35,NNW,347,2.0,8.0,20,0.00,,---,0.00,VWS V14.01,2013-02-12 20:20:00,
2013-02-12 12:25:00,51.8,9.7,30.34,NNE,25,0.0,10.0,18,0.00,,---,0.00,VWS V14.01,2013-02-12 20:25:00,
2013-02-12 12:30:00,52.2,10.0,30.34,NNE,20,2.0,10.0,18,0.00,,---,0.00,VWS V14.01,2013-02-12 20:30:00,
2013-02-12 12:35:00,52.5,10.2,30.34,ESE,105,0.0,10.0,18,0.00,,---,0.00,VWS V14.01,2013-02-12 20:35:00,
2013-02-12 12:40:00,52.6,9.1,30.33,NNE,20,3.0,10.0,17,0.00,,---,0.00,VWS V14.01,2013-02-12 20:40:00,
2013-02-12 12:45:00,53.0,10.6,30.33,ESE,104,4.0,10.0,18,0.00,,---,0.00,VWS V14.01,2013-02-12 20:45:00,
2013-02-12 12:50:00,53.7,9.9,30.33,ESE,110,0.0,10.0,17,0.00,,---,0.00,VWS V14.01,2013-02-12 20:50:00,
2013-02-12 12:55:00,53.4,9.7,30.33,NNE,29,4.0,10.0,17,0.00,,---,0.00,VWS V14.01,2013-02-12 20:55:00,
2013-02-12 13:00:00,53.1,10.7,30.32,NE,51,7.0,11.0,18,0.00,,---,0.00,VWS V14.01,2013-02-12 21:00:00,
2013-02-12 13:05:00,53.2,9.5,30.32,ENE,73,3.0,12.0,17,0.00,,---,0.00,VWS V14.01,2013-02-12 21:05:00,
2013-02-12 13:10:00,53.2,10.8,30.32,ESE,122,5.0,12.0,18,0.00,,---,0.00,VWS V14.01,2013-02-12 21:10:00,
2013-02-12 13:15:00,53.5,11.1,30.32,ENE,76,4.0,12.0,18,0.00,,---,0.00,VWS V14.01,2013-02-12 21:15:00,
2013-02-12 13:20:00,53.7,9.9,30.31,NE,46,10.0,12.0,17,0.00,,---,0.00,VWS V14.01,2013-02-12 21:20:00,
2013-02-12 13:25:00,53.8,10.0,30.31,NNE,32,3.0,12.0,17,0.00,,---,0.00,VWS V14.01,2013-02-12 21:25:00,
2013-02-12 13:30:00,54.0,11.5,30.31,NNE,16,4.0,12.0,18,0.00,,---,0.00,VWS V14.01,2013-02-12 21:30:00,
2013-02-12 13:35:00,54.0,11.5,30.31,NNE,12,2.0,12.0,18,0.00,,---,0.00,VWS V14.01,2013-02-12 21:35:00,
2013-02-12 13:40:00,54.2,11.6,30.30,East,97,8.0,12.0,18,0.00,,---,0.00,VWS V14.01,2013-02-12 21:40:00,
2013-02-12 13:45:00,54.5,11.9,30.30,NNE,25,4.0,12.0,18,0.00,,---,0.00,VWS V14.01,2013-02-12 21:45:00,
2013-02-12 13:50:00,54.7,12.1,30.30,NNE,12,6.0,12.0,18,0.00,,---,0.00,VWS V14.01,2013-02-12 21:50:00,
2013-02-12 13:55:00,54.8,10.8,30.30,ESE,110,1.0,12.0,17,0.00,,---,0.00,VWS V14.01,2013-02-12 21:55:00,
2013-02-12 14:01:00,55.0,12.3,30.30,SE,127,4.0,6.0,18,0.00,,---,0.00,VWS V14.01,2013-02-12 22:01:00,
2013-02-12 14:06:00,55.3,11.2,30.30,East,84,5.0,10.0,17,0.00,,---,0.00,VWS V14.01,2013-02-12 22:06:00,
2013-02-12 14:11:00,55.3,11.2,30.29,ESE,117,2.0,10.0,17,0.00,,---,0.00,VWS V14.01,2013-02-12 22:11:00,
2013-02-12 14:16:00,55.8,11.7,30.29,East,96,2.0,10.0,17,0.00,,---,0.00,VWS V14.01,2013-02-12 22:16:00,
2013-02-12 14:21:00,55.9,11.7,30.29,ESE,117,3.0,10.0,17,0.00,,---,0.00,VWS V14.01,2013-02-12 22:21:00,
2013-02-12 14:26:00,55.6,11.5,30.29,NE,53,6.0,10.0,17,0.00,,---,0.00,VWS V14.01,2013-02-12 22:26:00,
2013-02-12 14:31:00,55.4,12.6,30.29,ENE,74,4.0,10.0,18,0.00,,---,0.00,VWS V14.01,2013-02-12 22:31:00,
2013-02-12 14:36:00,55.7,11.6,30.29,ESE,113,1.0,10.0,17,0.00,,---,0.00,VWS V14.01,2013-02-12 22:36:00,
2013-02-12 14:41:00,56.1,11.9,30.29,East,82,3.0,10.0,17,0.00,,---,0.00,VWS V14.01,2013-02-12 22:41:00,
2013-02-12 14:46:00,55.6,11.5,30.29,NE,44,7.0,10.0,17,0.00,,---,0.00,VWS V14.01,2013-02-12 22:46:00,
2013-02-12 14:51:00,55.7,11.6,30.29,ESE,121,2.0,10.0,17,0.00,,---,0.00,VWS V14.01,2013-02-12 22:51:00,
2013-02-12 14:56:00,56.1,13.2,30.28,East,101,0.0,10.0,18,0.00,,---,0.00,VWS V14.01,2013-02-12 22:56:00,
2013-02-12 15:01:00,56.5,12.2,30.28,East,81,1.0,5.0,17,0.00,,---,0.00,VWS V14.01,2013-02-12 23:01:00,
2013-02-12 15:06:00,56.9,12.6,30.28,SE,127,4.0,5.0,17,0.00,,---,0.00,VWS V14.01,2013-02-12 23:06:00,
2013-02-12 15:11:00,56.5,12.2,30.28,ESE,116,3.0,8.0,17,0.00,,---,0.00,VWS V14.01,2013-02-12 23:11:00,
2013-02-12 15:16:00,56.5,12.2,30.28,South,170,0.0,8.0,17,0.00,,---,0.00,VWS V14.01,2013-02-12 23:16:00,
2013-02-12 15:21:00,56.8,12.5,30.28,SSE,166,1.0,8.0,17,0.00,,---,0.00,VWS V14.01,2013-02-12 23:21:00,
2013-02-12 15:26:00,56.9,12.6,30.28,East,96,4.0,8.0,17,0.00,,---,0.00,VWS V14.01,2013-02-12 23:26:00,
2013-02-12 15:31:00,56.4,12.1,30.28,ESE,115,3.0,8.0,17,0.00,,---,0.00,VWS V14.01,2013-02-12 23:31:00,
2013-02-12 15:36:00,56.3,12.1,30.28,ESE,108,3.0,8.0,17,0.00,,---,0.00,VWS V14.01,2013-02-12 23:36:00,
2013-02-12 15:41:00,56.5,12.2,30.28,NNE,30,5.0,8.0,17,0.00,,---,0.00,VWS V14.01,2013-02-12 23:41:00,
2013-02-12 15:46:00,56.2,12.0,30.28,NNE,21,4.0,8.0,17,0.00,,---,0.00,VWS V14.01,2013-02-12 23:46:00,
2013-02-12 15:51:00,56.2,12.0,30.27,NE,37,0.0,8.0,17,0.00,,---,0.00,VWS V14.01,2013-02-12 23:51:00,
2013-02-12 15:56:00,56.3,12.1,30.27,ESE,108,0.0,8.0,17,0.00,,---,0.00,VWS V14.01,2013-02-12 23:56:00,
2013-02-12 16:01:00,56.8,12.5,30.27,ENE,62,3.0,3.0,17,0.00,,---,0.00,VWS V14.01,2013-02-13 00:01:00,
2013-02-12 16:06:00,56.7,12.4,30.27,East,90,4.0,4.0,17,0.00,,---,0.00,VWS V14.01,2013-02-13 00:06:00,
2013-02-12 16:11:00,56.3,12.1,30.27,NE,49,2.0,6.0,17,0.00,,---,0.00,VWS V14.01,2013-02-13 00:11:00,
2013-02-12 16:16:00,56.1,11.9,30.27,East,79,3.0,6.0,17,0.00,,---,0.00,VWS V14.01,2013-02-13 00:16:00,
2013-02-12 16:21:00,56.1,11.9,30.27,NE,49,1.0,6.0,17,0.00,,---,0.00,VWS V14.01,2013-02-13 00:21:00,
2013-02-12 16:26:00,56.2,12.0,30.27,ESE,103,2.0,6.0,17,0.00,,---,0.00,VWS V14.01,2013-02-13 00:26:00,
2013-02-12 16:31:00,56.3,12.1,30.27,East,97,2.0,6.0,17,0.00,,---,0.00,VWS V14.01,2013-02-13 00:31:00,
2013-02-12 16:36:00,56.1,11.9,30.27,ESE,113,4.0,6.0,17,0.00,,---,0.00,VWS V14.01,2013-02-13 00:36:00,
2013-02-12 16:41:00,56.0,11.8,30.27,ESE,110,2.0,6.0,17,0.00,,---,0.00,VWS V14.01,2013-02-13 00:41:00,
2013-02-12 16:46:00,56.0,13.1,30.27,ESE,110,2.0,6.0,18,0.00,,---,0.00,VWS V14.01,2013-02-13 00:46:00,
2013-02-12 16:51:00,55.9,11.7,30.27,SSE,148,2.0,6.0,17,0.00,,---,0.00,VWS V14.01,2013-02-13 00:51:00,
2013-02-12 16:56:00,55.8,12.9,30.27,ESE,105,2.0,6.0,18,0.00,,---,0.00,VWS V14.01,2013-02-13 00:56:00,
2013-02-12 17:01:00,55.6,11.5,30.27,ENE,77,2.0,3.0,17,0.00,,---,0.00,VWS V14.01,2013-02-13 01:01:00,
2013-02-12 17:06:00,55.6,12.8,30.27,East,98,5.0,5.0,18,0.00,,---,0.00,VWS V14.01,2013-02-13 01:06:00,
2013-02-12 17:11:00,55.5,12.7,30.27,ESE,104,6.0,6.0,18,0.00,,---,0.00,VWS V14.01,2013-02-13 01:11:00,
2013-02-12 17:16:00,55.0,12.3,30.27,ENE,70,2.0,6.0,18,0.00,,---,0.00,VWS V14.01,2013-02-13 01:16:00,
2013-02-12 17:21:00,54.6,12.0,30.27,East,101,3.0,6.0,18,0.00,,---,0.00,VWS V14.01,2013-02-13 01:21:00,
2013-02-12 17:26:00,54.3,12.9,30.27,ENE,58,2.0,6.0,19,0.00,,---,0.00,VWS V14.01,2013-02-13 01:26:00,
2013-02-12 17:32:00,53.9,12.6,30.27,ESE,122,2.0,6.0,19,0.00,,---,0.00,VWS V14.01,2013-02-13 01:32:00,
2013-02-12 17:37:00,53.5,12.3,30.27,ESE,102,2.0,6.0,19,0.00,,---,0.00,VWS V14.01,2013-02-13 01:37:00,
2013-02-12 17:42:00,53.3,13.3,30.27,ESE,104,2.0,6.0,20,0.00,,---,0.00,VWS V14.01,2013-02-13 01:42:00,
2013-02-12 17:47:00,53.1,13.1,30.27,ESE,107,1.0,6.0,20,0.00,,---,0.00,VWS V14.01,2013-02-13 01:47:00,
2013-02-12 17:52:00,52.9,12.9,30.27,East,95,0.0,6.0,20,0.00,,---,0.00,VWS V14.01,2013-02-13 01:52:00,
2013-02-12 17:57:00,52.5,13.7,30.27,East,94,0.0,6.0,21,0.00,,---,0.00,VWS V14.01,2013-02-13 01:57:00,
2013-02-12 18:02:00,52.3,13.5,30.28,East,94,0.0,0.0,21,0.00,,---,0.00,VWS V14.01,2013-02-13 02:02:00,
2013-02-12 18:07:00,52.1,13.4,30.28,East,83,0.0,0.0,21,0.00,,---,0.00,VWS V14.01,2013-02-13 02:07:00,
2013-02-12 18:12:00,51.9,13.2,30.28,East,91,1.0,2.0,21,0.00,,---,0.00,VWS V14.01,2013-02-13 02:12:00,
2013-02-12 18:17:00,51.7,13.0,30.28,East,96,0.0,2.0,21,0.00,,---,0.00,VWS V14.01,2013-02-13 02:17:00,
2013-02-12 18:22:00,51.4,13.9,30.28,East,96,0.0,2.0,22,0.00,,---,0.00,VWS V14.01,2013-02-13 02:22:00,
2013-02-12 18:27:00,50.7,14.3,30.28,East,96,0.0,2.0,23,0.00,,---,0.00,VWS V14.01,2013-02-13 02:27:00,
2013-02-12 18:32:00,50.2,13.9,30.29,SW,217,0.0,2.0,23,0.00,,---,0.00,VWS V14.01,2013-02-13 02:32:00,
2013-02-12 18:37:00,49.8,15.4,30.29,SW,215,0.0,2.0,25,0.00,,---,0.00,VWS V14.01,2013-02-13 02:37:00,
2013-02-12 18:42:00,49.0,14.7,30.29,SSW,203,0.0,2.0,25,0.00,,---,0.00,VWS V14.01,2013-02-13 02:42:00,
2013-02-12 18:47:00,48.3,15.9,30.29,SW,222,0.0,2.0,27,0.00,,---,0.00,VWS V14.01,2013-02-13 02:47:00,
2013-02-12 18:52:00,47.6,16.9,30.29,SW,222,0.0,2.0,29,0.00,,---,0.00,VWS V14.01,2013-02-13 02:52:00,
2013-02-12 18:57:00,47.3,16.7,30.29,SW,222,0.0,2.0,29,0.00,,---,0.00,VWS V14.01,2013-02-13 02:57:00,
2013-02-12 19:02:00,47.1,16.5,30.29,WSW,250,0.0,0.0,29,0.00,,---,0.00,VWS V14.01,2013-02-13 03:02:00,
2013-02-12 19:07:00,46.9,17.1,30.29,WSW,252,0.0,0.0,30,0.00,,---,0.00,VWS V14.01,2013-02-13 03:07:00,
2013-02-12 19:12:00,46.4,15.9,30.30,WSW,252,0.0,0.0,29,0.00,,---,0.00,VWS V14.01,2013-02-13 03:12:00,
2013-02-12 19:17:00,46.1,16.4,30.30,WSW,252,0.0,0.0,30,0.00,,---,0.00,VWS V14.01,2013-02-13 03:17:00,
2013-02-12 19:22:00,45.9,17.0,30.30,WSW,252,0.0,0.0,31,0.00,,---,0.00,VWS V14.01,2013-02-13 03:22:00,
2013-02-12 19:27:00,45.5,17.4,30.30,WSW,252,0.0,0.0,32,0.00,,---,0.00,VWS V14.01,2013-02-13 03:27:00,
2013-02-12 19:32:00,44.8,17.5,30.30,WSW,252,0.0,0.0,33,0.00,,---,0.00,VWS V14.01,2013-02-13 03:32:00,
2013-02-12 19:37:00,44.4,17.1,30.30,SW,216,0.0,0.0,33,0.00,,---,0.00,VWS V14.01,2013-02-13 03:37:00,
2013-02-12 19:42:00,44.5,15.8,30.30,SW,228,0.0,0.0,31,0.00,,---,0.00,VWS V14.01,2013-02-13 03:42:00,
2013-02-12 19:47:00,45.0,16.2,30.30,SW,232,2.0,2.0,31,0.00,,---,0.00,VWS V14.01,2013-02-13 03:47:00,
2013-02-12 19:52:00,44.3,17.0,30.30,SSW,199,1.0,2.0,33,0.00,,---,0.00,VWS V14.01,2013-02-13 03:52:00,
2013-02-12 19:57:00,43.4,16.2,30.30,SSW,195,2.0,3.0,33,0.00,,---,0.00,VWS V14.01,2013-02-13 03:57:00,
2013-02-12 20:02:00,43.5,15.6,30.30,SSW,198,1.0,2.0,32,0.00,,---,0.00,VWS V14.01,2013-02-13 04:02:00,
2013-02-12 20:07:00,43.6,15.0,30.30,SSW,198,2.0,2.0,31,0.00,,---,0.00,VWS V14.01,2013-02-13 04:07:00,
2013-02-12 20:12:00,43.5,15.6,30.30,SSW,195,2.0,2.0,32,0.00,,---,0.00,VWS V14.01,2013-02-13 04:12:00,
2013-02-12 20:17:00,43.3,15.4,30.30,South,188,0.0,2.0,32,0.00,,---,0.00,VWS V14.01,2013-02-13 04:17:00,
2013-02-12 20:22:00,43.4,15.5,30.30,SE,146,1.0,2.0,32,0.00,,---,0.00,VWS V14.01,2013-02-13 04:22:00,
2013-02-12 20:27:00,43.3,15.4,30.31,SSE,156,0.0,2.0,32,0.00,,---,0.00,VWS V14.01,2013-02-13 04:27:00,
2013-02-12 20:32:00,43.1,15.3,30.31,SSW,200,2.0,3.0,32,0.00,,---,0.00,VWS V14.01,2013-02-13 04:32:00,
2013-02-12 20:37:00,43.1,15.3,30.31,SSW,204,1.0,3.0,32,0.00,,---,0.00,VWS V14.01,2013-02-13 04:37:00,
2013-02-12 20:42:00,42.8,15.7,30.31,SSW,204,0.0,3.0,33,0.00,,---,0.00,VWS V14.01,2013-02-13 04:42:00,
2013-02-12 20:48:00,42.7,14.9,30.31,SSW,210,1.0,3.0,32,0.00,,---,0.00,VWS V14.01,2013-02-13 04:48:00,
2013-02-12 20:53:00,43.1,15.3,30.31,SSW,210,3.0,3.0,32,0.00,,---,0.00,VWS V14.01,2013-02-13 04:53:00,
2013-02-12 20:58:00,42.4,15.4,30.32,SSW,202,2.0,3.0,33,0.00,,---,0.00,VWS V14.01,2013-02-13 04:58:00,
2013-02-12 21:00:00,42.3,15.3,30.32,SSW,201,2.0,2.0,33,0.00,,---,0.00,VWS V14.01,2013-02-13 05:00:00,
2013-02-12 21:01:00,42.2,15.9,30.32,SSW,205,2.0,2.0,34,0.00,,---,0.00,VWS V14.01,2013-02-13 05:01:00,
2013-02-12 21:02:00,42.1,15.8,30.32,SSW,201,2.0,2.0,34,0.00,,---,0.00,VWS V14.01,2013-02-13 05:02:00,
2013-02-12 21:05:00,41.9,15.6,30.32,SSW,207,2.0,3.0,34,0.00,,---,0.00,VWS V14.01,2013-02-13 05:05:00,
2013-02-12 21:10:00,41.8,15.5,30.32,SSW,212,2.0,3.0,34,0.00,,---,0.00,VWS V14.01,2013-02-13 05:10:00,
2013-02-12 21:15:00,42.3,15.3,30.32,SW,223,2.0,3.0,33,0.00,,---,0.00,VWS V14.01,2013-02-13 05:15:00,
2013-02-12 21:20:00,42.4,15.4,30.32,SW,223,2.0,3.0,33,0.00,,---,0.00,VWS V14.01,2013-02-13 05:20:00,
2013-02-12 21:25:00,42.2,15.2,30.31,SSW,195,2.0,3.0,33,0.00,,---,0.00,VWS V14.01,2013-02-13 05:25:00,
2013-02-12 21:30:00,41.9,14.9,30.31,South,169,2.0,3.0,33,0.00,,---,0.00,VWS V14.01,2013-02-13 05:30:00,
2013-02-12 21:35:00,41.5,15.2,30.31,South,191,1.0,3.0,34,0.00,,---,0.00,VWS V14.01,2013-02-13 05:35:00,
2013-02-12 21:40:00,41.6,14.6,30.31,SSE,149,1.0,3.0,33,0.00,,---,0.00,VWS V14.01,2013-02-13 05:40:00,
2013-02-12 21:45:00,41.7,14.7,30.32,SSE,150,0.0,3.0,33,0.00,,---,0.00,VWS V14.01,2013-02-13 05:45:00,
2013-02-12 21:50:00,41.8,14.8,30.32,SSE,150,0.0,3.0,33,0.00,,---,0.00,VWS V14.01,2013-02-13 05:50:00,
2013-02-12 21:55:00,41.9,14.9,30.32,SSE,152,0.0,3.0,33,0.00,,---,0.00,VWS V14.01,2013-02-13 05:55:00,
2013-02-12 22:00:00,42.0,15.7,30.32,SSE,159,0.0,0.0,34,0.00,,---,0.00,VWS V14.01,2013-02-13 06:00:00,
2013-02-12 22:05:00,41.6,16.0,30.32,South,172,2.0,2.0,35,0.00,,---,0.00,VWS V14.01,2013-02-13 06:05:00,
2013-02-12 22:10:00,41.3,15.7,30.32,South,174,2.0,2.0,35,0.00,,---,0.00,VWS V14.01,2013-02-13 06:10:00,
2013-02-12 22:15:00,41.1,16.2,30.32,SSE,163,2.0,3.0,36,0.00,,---,0.00,VWS V14.01,2013-02-13 06:15:00,
2013-02-12 22:20:00,40.7,16.5,30.32,South,174,2.0,3.0,37,0.00,,---,0.00,VWS V14.01,2013-02-13 06:20:00,
2013-02-12 22:25:00,40.5,16.9,30.32,SSE,167,2.0,3.0,38,0.00,,---,0.00,VWS V14.01,2013-02-13 06:25:00,
2013-02-12 22:30:00,40.5,17.5,30.32,South,190,3.0,3.0,39,0.00,,---,0.00,VWS V14.01,2013-02-13 06:30:00,
2013-02-12 22:35:00,40.7,17.7,30.32,SSW,195,3.0,3.0,39,0.00,,---,0.00,VWS V14.01,2013-02-13 06:35:00,
2013-02-12 22:40:00,40.7,17.7,30.32,South,179,3.0,3.0,39,0.00,,---,0.00,VWS V14.01,2013-02-13 06:40:00,
2013-02-12 22:45:00,40.4,18.0,30.32,South,188,1.0,3.0,40,0.00,,---,0.00,VWS V14.01,2013-02-13 06:45:00,
2013-02-12 22:50:00,40.0,18.2,30.32,SSW,197,2.0,3.0,41,0.00,,---,0.00,VWS V14.01,2013-02-13 06:50:00,
2013-02-12 22:55:00,40.1,18.9,30.31,South,186,3.0,4.0,42,0.00,,---,0.00,VWS V14.01,2013-02-13 06:55:00,
2013-02-12 23:00:00,40.1,18.9,30.31,South,188,1.0,2.0,42,0.00,,---,0.00,VWS V14.01,2013-02-13 07:00:00,
2013-02-12 23:05:00,40.1,19.4,30.31,South,187,1.0,2.0,43,0.00,,---,0.00,VWS V14.01,2013-02-13 07:05:00,
2013-02-12 23:10:00,39.6,19.0,30.31,South,172,1.0,2.0,43,0.00,,---,0.00,VWS V14.01,2013-02-13 07:10:00,
2013-02-12 23:15:00,39.5,18.9,30.31,South,178,1.0,2.0,43,0.00,,---,0.00,VWS V14.01,2013-02-13 07:15:00,
2013-02-12 23:20:00,39.6,19.0,30.31,South,177,0.0,2.0,43,0.00,,---,0.00,VWS V14.01,2013-02-13 07:20:00,
2013-02-12 23:25:00,39.5,19.4,30.31,SSE,155,0.0,2.0,44,0.00,,---,0.00,VWS V14.01,2013-02-13 07:25:00,
2013-02-12 23:30:00,39.5,19.4,30.31,SSW,197,2.0,2.0,44,0.00,,---,0.00,VWS V14.01,2013-02-13 07:30:00,
2013-02-12 23:35:00,39.4,19.3,30.31,SW,221,0.0,2.0,44,0.00,,---,0.00,VWS V14.01,2013-02-13 07:35:00,
2013-02-12 23:40:00,38.9,19.4,30.31,SSW,203,0.0,2.0,45,0.00,,---,0.00,VWS V14.01,2013-02-13 07:40:00,
2013-02-12 23:45:00,38.7,19.7,30.31,SSW,203,1.0,2.0,46,0.00,,---,0.00,VWS V14.01,2013-02-13 07:45:00,
2013-02-12 23:50:00,38.9,19.9,30.31,SSW,203,1.0,2.0,46,0.00,,---,0.00,VWS V14.01,2013-02-13 07:50:00,
2013-02-12 23:55:00,38.8,19.8,30.31,SSE,163,0.0,2.0,46,0.00,,---,0.00,VWS V14.01,2013-02-13 07:55:00,